When you browse on this site, cookies collect data to enhance your experience and personalize the content and advertising you see.
Visit our Privacy Policy to learn more. By continuing to use the site, you agree to this use of cookies and data.
  • In Hungary
  • List of Countries
  • For 7 days
  • Water Temperature
  • Weather Map
  • News
  • Weather Widgets
  • user-avatar
    Login

    Hourly Weather Taber

    Today, 13 November, Wednesday

    Time Temperature Precipitation Wind Pressure Humidity
    00:00 -1°C° 0 mm 3 mps 689 mmHg 91%
    01:00 -1°C° 0 mm 2 mps 689 mmHg 90%
    02:00 -2°C° 0 mm 2 mps 689 mmHg 89%
    03:00 -2°C° 0 mm 2 mps 689 mmHg 88%
    04:00 -2°C° 0 mm 2 mps 690 mmHg 86%
    05:00 -3°C° 0 mm 2 mps 690 mmHg 84%
    06:00 -2°C° 0 mm 2 mps 690 mmHg 84%
    07:00 -2°C° 0 mm 2 mps 690 mmHg 84%
    08:00 -2°C° 0 mm 3 mps 690 mmHg 84%
    09:00 -2°C° 0 mm 3 mps 690 mmHg 85%
    10:00 -1°C° 0 mm 3 mps 691 mmHg 85%
    11:00 -1°C° 0 mm 3 mps 691 mmHg 86%
    12:00 0°C° 0 mm 3 mps 691 mmHg 88%
    13:00 +1°C° 0 mm 2 mps 691 mmHg 90%
    14:00 +1°C° 0 mm 2 mps 691 mmHg 91%
    15:00 +1°C° 0 mm 2 mps 691 mmHg 89%
    16:00 -1°C° 0 mm 2 mps 691 mmHg 87%
    17:00 -2°C° 0 mm 2 mps 691 mmHg 84%
    18:00 -2°C° 0 mm 3 mps 691 mmHg 83%
    19:00 -2°C° 0 mm 3 mps 691 mmHg 83%
    20:00 -2°C° 0 mm 3 mps 691 mmHg 82%
    21:00 -2°C° 0 mm 3 mps 691 mmHg 82%
    22:00 -3°C° 0 mm 4 mps 691 mmHg 82%
    23:00 -3°C° 0 mm 4 mps 691 mmHg 81%

    Tomorrow, 14 November, Thursday

    Time Temperature Precipitation Wind Pressure Humidity
    00:00 -4°C° 0 mm 3 mps 691 mmHg 81%
    01:00 -4°C° 0 mm 3 mps 691 mmHg 81%
    02:00 -4°C° 0 mm 3 mps 691 mmHg 81%
    03:00 -4°C° 0 mm 3 mps 690 mmHg 81%
    04:00 -4°C° 0 mm 3 mps 690 mmHg 81%
    05:00 -4°C° 0 mm 3 mps 690 mmHg 81%
    06:00 -4°C° 0 mm 3 mps 690 mmHg 83%
    07:00 -5°C° 0 mm 3 mps 690 mmHg 84%
    08:00 -5°C° 0 mm 3 mps 690 mmHg 85%
    09:00 -4°C° 0 mm 3 mps 690 mmHg 85%
    10:00 -2°C° 0 mm 2 mps 690 mmHg 84%
    11:00 -1°C° 0 mm 2 mps 690 mmHg 84%
    12:00 -1°C° 0 mm 2 mps 690 mmHg 86%
    13:00 +2°C° 0 mm 1 mps 690 mmHg 88%
    14:00 +2°C° 0 mm 1 mps 689 mmHg 90%
    15:00 +1°C° 0 mm 2 mps 689 mmHg 88%
    16:00 -1°C° 0 mm 2 mps 688 mmHg 87%
    17:00 -1°C° 0 mm 3 mps 688 mmHg 86%
    18:00 -1°C° 0 mm 3 mps 688 mmHg 85%
    19:00 -2°C° 0 mm 4 mps 688 mmHg 85%
    20:00 -2°C° 0 mm 4 mps 688 mmHg 84%
    21:00 -2°C° 0 mm 4 mps 687 mmHg 83%
    22:00 -2°C° 0 mm 4 mps 687 mmHg 81%
    23:00 -2°C° 0 mm 4 mps 687 mmHg 80%

    Day after tomorrow, 15 November, Friday

    Time Temperature Precipitation Wind Pressure Humidity
    00:00 -1°C° 0 mm 4 mps 687 mmHg 80%
    01:00 -1°C° 0 mm 4 mps 686 mmHg 79%
    02:00 0°C° 0 mm 3 mps 686 mmHg 79%
    03:00 0°C° 0 mm 3 mps 685 mmHg 79%
    04:00 0°C° 0 mm 4 mps 685 mmHg 77%
    05:00 +1°C° 0 mm 4 mps 685 mmHg 76%
    06:00 +1°C° 0 mm 5 mps 684 mmHg 76%
    07:00 +2°C° 0 mm 6 mps 684 mmHg 75%
    08:00 +3°C° 0 mm 7 mps 684 mmHg 74%
    09:00 +3°C° 0 mm 7 mps 684 mmHg 76%
    10:00 +4°C° 0 mm 7 mps 684 mmHg 77%
    11:00 +4°C° 0 mm 8 mps 684 mmHg 79%
    12:00 +4°C° 0 mm 7 mps 684 mmHg 78%
    13:00 +4°C° 0 mm 7 mps 684 mmHg 77%
    14:00 +5°C° 0 mm 7 mps 684 mmHg 76%
    15:00 +4°C° 0 mm 6 mps 684 mmHg 77%
    16:00 +3°C° 0 mm 6 mps 685 mmHg 77%
    17:00 +2°C° 0 mm 5 mps 685 mmHg 78%
    18:00 +1°C° 0 mm 5 mps 685 mmHg 81%
    19:00 0°C° 0 mm 5 mps 686 mmHg 83%
    20:00 -1°C° 0 mm 5 mps 687 mmHg 86%
    21:00 -1°C° 0.9 mm 4 mps 687 mmHg 90%
    22:00 -1°C° 0.9 mm 4 mps 688 mmHg 94%
    23:00 0°C° 0.9 mm 3 mps 689 mmHg 98%

    16 November, Saturday

    Time Temperature Precipitation Wind Pressure Humidity
    00:00 0°C° 0 mm 4 mps 690 mmHg 94%
    01:00 0°C° 0 mm 5 mps 690 mmHg 91%
    02:00 -1°C° 0 mm 6 mps 691 mmHg 88%
    03:00 0°C° 0 mm 5 mps 691 mmHg 86%
    04:00 -1°C° 0 mm 4 mps 692 mmHg 85%
    05:00 -1°C° 0 mm 4 mps 692 mmHg 84%
    06:00 -1°C° 0 mm 4 mps 693 mmHg 82%
    07:00 -1°C° 0 mm 4 mps 693 mmHg 81%
    08:00 -1°C° 0 mm 4 mps 694 mmHg 79%
    09:00 0°C° 0 mm 4 mps 693 mmHg 78%
    10:00 +1°C° 0 mm 4 mps 693 mmHg 76%
    11:00 +3°C° 0 mm 4 mps 693 mmHg 74%
    12:00 +4°C° 0 mm 4 mps 693 mmHg 74%
    13:00 +4°C° 0 mm 4 mps 692 mmHg 73%
    14:00 +4°C° 0 mm 4 mps 691 mmHg 73%
    15:00 +3°C° 0 mm 5 mps 690 mmHg 73%
    16:00 +2°C° 0 mm 5 mps 690 mmHg 73%
    17:00 +1°C° 0 mm 6 mps 689 mmHg 73%
    18:00 +1°C° 0 mm 6 mps 688 mmHg 72%
    19:00 +1°C° 0 mm 6 mps 688 mmHg 71%
    20:00 0°C° 0 mm 7 mps 687 mmHg 71%
    21:00 +2°C° 0 mm 7 mps 686 mmHg 69%
    22:00 +2°C° 0 mm 8 mps 686 mmHg 67%
    23:00 +2°C° 0 mm 8 mps 685 mmHg 66%

    17 November, Sunday

    Time Temperature Precipitation Wind Pressure Humidity
    00:00 +3°C° 0 mm 9 mps 685 mmHg 65%
    01:00 +5°C° 0 mm 9 mps 685 mmHg 65%
    02:00 +5°C° 0 mm 9 mps 684 mmHg 65%
    03:00 +6°C° 0 mm 10 mps 684 mmHg 63%
    04:00 +7°C° 0 mm 11 mps 684 mmHg 62%
    05:00 +8°C° 0 mm 11 mps 683 mmHg 60%
    06:00 +8°C° 0 mm 11 mps 683 mmHg 61%
    07:00 +8°C° 0 mm 11 mps 683 mmHg 62%
    08:00 +8°C° 0 mm 11 mps 683 mmHg 63%
    09:00 +8°C° 0 mm 10 mps 683 mmHg 61%
    10:00 +9°C° 0 mm 10 mps 683 mmHg 60%
    11:00 +9°C° 0 mm 10 mps 684 mmHg 59%
    12:00 +11°C° 0 mm 10 mps 684 mmHg 57%
    13:00 +11°C° 0 mm 10 mps 684 mmHg 56%
    14:00 +12°C° 0 mm 9 mps 684 mmHg 55%
    15:00 +11°C° 0 mm 9 mps 684 mmHg 57%
    16:00 +10°C° 0 mm 9 mps 684 mmHg 59%
    17:00 +8°C° 0 mm 9 mps 684 mmHg 61%
    18:00 +7°C° 0 mm 9 mps 684 mmHg 61%
    19:00 +7°C° 0 mm 9 mps 684 mmHg 61%
    20:00 +7°C° 0 mm 9 mps 684 mmHg 61%
    21:00 +7°C° 0 mm 8 mps 685 mmHg 61%
    22:00 +7°C° 0 mm 8 mps 685 mmHg 61%
    23:00 +7°C° 0 mm 8 mps 685 mmHg 61%

    18 November, Monday

    Time Temperature Precipitation Wind Pressure Humidity
    00:00 +6°C° 0 mm 8 mps 685 mmHg 62%
    01:00 +6°C° 0 mm 8 mps 685 mmHg 63%
    02:00 +6°C° 0 mm 8 mps 685 mmHg 64%
    03:00 +5°C° 0 mm 6 mps 684 mmHg 66%
    04:00 +5°C° 0 mm 4 mps 684 mmHg 68%
    05:00 +5°C° 0 mm 1 mps 684 mmHg 69%
    06:00 +5°C° 0 mm 1 mps 684 mmHg 69%
    07:00 +5°C° 0 mm 1 mps 684 mmHg 69%
    08:00 +5°C° 0 mm 1 mps 684 mmHg 68%
    09:00 +5°C° 0 mm 1 mps 684 mmHg 67%
    10:00 +5°C° 0 mm 2 mps 684 mmHg 66%
    11:00 +5°C° 0 mm 3 mps 684 mmHg 64%
    12:00 +6°C° 0 mm 2 mps 684 mmHg 64%
    13:00 +6°C° 0 mm 2 mps 683 mmHg 64%
    14:00 +7°C° 0 mm 2 mps 683 mmHg 63%
    15:00 +5°C° 0 mm 3 mps 683 mmHg 68%
    16:00 +3°C° 0 mm 3 mps 683 mmHg 72%
    17:00 +2°C° 0 mm 3 mps 682 mmHg 77%
    18:00 +2°C° 0 mm 3 mps 683 mmHg 78%
    19:00 +1°C° 0 mm 3 mps 683 mmHg 78%
    20:00 0°C° 0 mm 3 mps 683 mmHg 79%
    21:00 0°C° 0 mm 3 mps 683 mmHg 82%
    22:00 -1°C° 0 mm 2 mps 684 mmHg 85%
    23:00 -1°C° 0 mm 2 mps 684 mmHg 88%
    Show more